Fargo, ND

8:20 PM CST on December 15, 2019 (GMT -0600)
Hector International

Weather History for KFAR - October, 2019

Change the Weather History Date:

Monday, October 7, 2019

  Actual Average Record
Temperature  
Mean Temperature 52 °F 50 °F  
Max Temperature 66 °F 61 °F 87 °F (1975)
Min Temperature 37 °F 39 °F 19 °F (1952)
Degree Days  
Heating Degree Days 14 16  
Month to date heating degree days 126 100  
Since 1 July heating degree days 341 370  
Cooling Degree Days 0 0  
Month to date cooling degree days 0 0  
Year to date cooling degree days 527 548  
Growing Degree Days 2 (Base 50)    
Moisture  
Dew Point 39 °F    
Average Humidity 65    
Maximum Humidity 93    
Minimum Humidity 37    
Precipitation  
Precipitation 0.00 in 0.08 in 1.88 in (1901)
Month to date precipitation 1.47 0.58  
Year to date precipitation 26.17 19.18  
Snow  
Snow 0.00 in 0.00 in 3.30 in (1894)
Month to date snowfall 0.0 0.0  
Since 1 July snowfall 0.0 0.0  
Since 1 September snowfall 0.0 0.0  
Snow Depth 0.00 in    
Sea Level Pressure  
Sea Level Pressure 30.02 in    
Wind  
Wind Speed 8 mph ()    
Max Wind Speed 17 mph    
Max Gust Speed 22 mph    
Visibility 10.0 miles    
Events      
T = Trace of Precipitation, MM = Missing Value Source: Averaged Metar Reports

Daily Weather History Graph

Daily Weather History Graph

Search for Another Location

Airport or City:

Astronomy

Oct. 07, 2019 Rise Set
Actual Time 7:33 AM CDT 6:55 PM CDT
Civil Twilight 7:03 AM CDT 7:25 PM CDT
Nautical Twilight 6:28 AM CDT 8:00 PM CDT
Astronomical Twilight 5:52 AM CDT 8:36 PM CDT
Moon 4:43 PM CDT (10/7) 1:00 AM CDT (10/7)
Length of Visible Light 12h 22m
Length of Day
11h 21m
Waxing Gibbous, 69% of the Moon is Illuminated
Oct 7
Waxing Gibbous
Oct 13
Full
Oct 21
Last Quarter
Oct 27
New
Nov 4
First Quarter

Hourly Weather History & Observations

Time (CDT) Temp. Windchill Dew Point Humidity Pressure Visibility Wind Dir Wind Speed Gust Speed Precip Events Conditions
12:53 AM 46.0 °F 40.2 °F 39.9 °F 79% 30.03 in 10.0 mi WSW 12.7 mph - N/A   Clear
1:53 AM 45.0 °F 39.7 °F 39.0 °F 80% 30.04 in 10.0 mi WSW 10.4 mph - N/A   Clear
2:53 AM 43.0 °F 38.2 °F 37.9 °F 82% 30.05 in 10.0 mi West 8.1 mph - N/A   Clear
3:53 AM 42.1 °F 37.7 °F 37.9 °F 85% 30.06 in 10.0 mi West 6.9 mph - N/A   Clear
4:53 AM 39.0 °F 34.8 °F 36.0 °F 89% 30.08 in 10.0 mi WSW 5.8 mph - N/A   Clear
5:53 AM 39.0 °F 34.0 °F 36.0 °F 89% 30.09 in 10.0 mi WSW 6.9 mph - N/A   Clear
6:53 AM 37.9 °F 32.7 °F 35.1 °F 89% 30.10 in 10.0 mi SSW 6.9 mph - N/A   Clear
7:53 AM 37.9 °F 32.7 °F 36.0 °F 93% 30.10 in 10.0 mi SSW 6.9 mph - N/A   Clear
8:53 AM 44.1 °F 40.8 °F 39.9 °F 85% 30.11 in 10.0 mi SSW 5.8 mph - N/A   Clear
9:53 AM 48.0 °F - 41.0 °F 77% 30.11 in 10.0 mi SSW 5.8 mph - N/A   Clear
10:53 AM 52.0 °F - 42.1 °F 69% 30.11 in 10.0 mi South 8.1 mph - N/A   Clear
11:53 AM 57.0 °F - 42.1 °F 57% 30.09 in 10.0 mi South 9.2 mph - N/A   Clear
12:53 PM 61.0 °F - 42.1 °F 50% 30.07 in 10.0 mi South 9.2 mph 18.4 mph N/A   Clear
1:53 PM 64.0 °F - 42.1 °F 45% 30.04 in 10.0 mi SSW 11.5 mph - N/A   Clear
2:53 PM 64.9 °F - 39.0 °F 39% 30.01 in 10.0 mi SW 13.8 mph 20.7 mph N/A   Clear
3:53 PM 66.0 °F - 39.0 °F 37% 30.00 in 10.0 mi SSW 13.8 mph - N/A   Clear
4:53 PM 64.9 °F - 41.0 °F 42% 29.98 in 10.0 mi SSW 16.1 mph - N/A   Clear
5:53 PM 63.0 °F - 41.0 °F 45% 29.97 in 10.0 mi SSW 10.4 mph - N/A   Clear
6:53 PM 60.1 °F - 39.9 °F 47% 29.95 in 10.0 mi South 8.1 mph - N/A   Clear
7:53 PM 57.9 °F - 39.0 °F 49% 29.94 in 10.0 mi SSE 9.2 mph - N/A   Clear
8:53 PM 57.0 °F - 39.0 °F 51% 29.94 in 10.0 mi SSE 10.4 mph - N/A   Clear
9:53 PM 55.0 °F - 39.0 °F 55% 29.92 in 10.0 mi SSE 9.2 mph - N/A   Clear
10:53 PM 54.0 °F - 39.0 °F 57% 29.90 in 10.0 mi SSE 10.4 mph - N/A   Clear
11:53 PM 53.1 °F - 39.0 °F 59% 29.87 in 10.0 mi SSE 10.4 mph 20.7 mph N/A   Clear